KK5DC Weather Reports


Display with metric or nautical units.
time (UTC)temp
F
wind
direction
speed
MPH
gust
MPH
rain 1hr
in
rain 24hr
in
rain mn
in
humidity
%
barometer
mb
20260904032511 79 202 2.0 5.0 0.00 0.00 0.00 82 1014.1
20260904032509 79 96 3.0 8.0 0.00 0.00 0.00 82 1013.4
20260904032013 79 153 3.0 8.0 0.00 0.00 0.00 82 1013.4
20260904032006 79 198 1.0 6.0 0.00 0.00 0.00 82 1014.1
20260904031525 79 153 1.0 7.0 0.00 0.00 0.00 82 1014.1
20260904031523 79 111 2.0 7.0 0.00 0.00 0.00 82 1013.5
20260904031018 79 112 1.0 7.0 0.00 0.00 0.00 82 1013.4
20260904031013 79 142 0.0 7.0 0.00 0.00 0.00 82 1014.1
20260904030517 79 167 1.0 9.0 0.00 0.00 0.00 82 1013.3
20260904030504 79 249 0.0 9.0 0.00 0.00 0.00 82 1014.0
20260904030016 79 143 1.0 9.0 0.00 0.00 0.00 81 1013.3
20260904025514 79 56 1.0 8.0 0.00 0.00 0.00 81 1013.2
20260904025510 79 126 0.0 2.0 0.00 0.00 0.00 81 1014.0
20260904025014 80 161 2.0 7.0 0.00 0.00 0.00 81 1013.3
20260904025003 80 211 0.0 3.0 0.00 0.00 0.00 81 1014.0
20260904024533 80 109 1.0 5.0 0.00 0.00 0.00 80 1013.2
20260904024508 80 180 1.0 4.0 0.00 0.00 0.00 80 1013.9
20260904024009 80 132 2.0 7.0 0.00 0.00 0.00 80 1013.1
20260904024006 80 185 1.0 4.0 0.00 0.00 0.00 80 1013.8
20260904023507 80 100 1.0 7.0 0.00 0.00 0.00 80 1013.2
20260904023505 80 182 0.0 4.0 0.00 0.00 0.00 80 1013.8
20260904023018 80 124 2.0 8.0 0.00 0.00 0.00 79 1013.1
20260904023014 80 245 1.0 3.0 0.00 0.00 0.00 79 1013.7
20260904022513 80 61 1.0 8.0 0.00 0.00 0.00 79 1013.0
20260904022510 80 206 0.0 5.0 0.00 0.00 0.00 79 1013.6
20260904022011 80 139 0.0 3.0 0.00 0.00 0.00 78 1013.8
20260904021540 80 201 1.0 8.0 0.00 0.00 0.00 78 1013.8
20260904021531 80 74 1.0 8.0 0.00 0.00 0.00 78 1013.1
20260904021012 80 77 1.0 7.0 0.00 0.00 0.00 77 1013.0
20260904021008 80 254 2.0 8.0 0.00 0.00 0.00 77 1013.7
20260904020510 80 134 2.0 7.0 0.00 0.00 0.00 77 1012.8
20260904020508 80 274 1.0 4.0 0.00 0.00 0.00 77 1013.5
20260904020028 80 131 1.0 3.0 0.00 0.00 0.00 76 1013.3
20260904015515 81 167 2.0 7.0 0.00 0.00 0.00 76 1012.5
20260904015504 81 152 0.0 4.0 0.00 0.00 0.00 76 1013.2
20260904015010 81 130 2.0 7.0 0.00 0.00 0.00 75 1012.4
20260904014531 81 67 1.0 6.0 0.00 0.00 0.00 74 1012.4
20260904014523 81 195 0.0 4.0 0.00 0.00 0.00 74 1013.2
20260904014017 81 110 2.0 7.0 0.00 0.00 0.00 74 1012.3
20260904014004 81 331 0.0 4.0 0.00 0.00 0.00 74 1013.2
20260904013514 81 96 1.0 7.0 0.00 0.00 0.00 73 1012.3
20260904013503 81 133 1.0 5.0 0.00 0.00 0.00 73 1013.1
20260904013023 81 105 2.0 7.0 0.00 0.00 0.00 73 1012.2
20260904013011 81 141 2.0 4.0 0.00 0.00 0.00 73 1013.0
20260904012518 81 150 2.0 7.0 0.00 0.00 0.00 73 1012.2
20260904012508 81 152 1.0 4.0 0.00 0.00 0.00 73 1012.9
20260904012010 82 117 2.0 7.0 0.00 0.00 0.00 72 1012.1
20260904012004 82 117 1.0 4.0 0.00 0.00 0.00 72 1012.8
20260904011528 82 153 2.0 5.0 0.00 0.01 0.00 72 1012.1
20260904011518 82 109 1.0 4.0 0.00 0.01 0.00 72 1012.8
20260904011012 82 135 1.0 4.0 0.00 0.01 0.00 72 1012.8
20260904010512 82 205 1.0 6.0 0.00 0.01 0.00 71 1013.0
20260904010510 82 167 1.0 6.0 0.00 0.01 0.00 71 1012.2
20260904010027 82 181 1.0 6.0 0.00 0.02 0.00 70 1012.2
20260904010018 82 163 1.0 6.0 0.00 0.02 0.00 70 1013.0
20260904005515 83 124 1.0 7.0 0.00 0.04 0.00 70 1012.1
20260904005507 83 126 1.0 4.0 0.00 0.04 0.00 70 1013.1
20260904005016 83 184 1.0 5.0 0.00 0.06 0.00 69 1013.1
20260904004532 83 80 1.0 8.0 0.00 0.08 0.00 69 1012.2
20260904004508 83 146 1.0 8.0 0.00 0.08 0.00 69 1013.0
20260904004012 83 101 1.0 11.0 0.00 0.09 0.00 68 1013.0
20260904004008 83 120 2.0 11.0 0.00 0.09 0.00 68 1012.1
20260904003515 83 169 2.0 11.0 0.00 0.18 0.00 68 1012.9
20260904003033 84 144 3.0 10.0 0.00 0.22 0.00 67 1012.1
20260904003021 84 159 3.0 10.0 0.00 0.22 0.00 67 1013.1
20260904002517 84 71 2.0 8.0 0.00 0.22 0.00 67 1012.1
20260904002504 84 112 2.0 8.0 0.00 0.22 0.00 66 1012.9
20260904002012 84 86 1.0 5.0 0.00 0.22 0.00 66 1012.1
20260904002008 84 14 1.0 5.0 0.00 0.22 0.00 66 1012.9
20260904001531 84 134 1.0 6.0 0.00 0.22 0.00 66 1012.0
20260904001516 84 162 1.0 6.0 0.00 0.22 0.00 66 1012.8
20260904001015 84 144 2.0 6.0 0.00 0.22 0.00 65 1012.0
20260904001006 84 224 1.0 6.0 0.00 0.22 0.00 65 1012.7
20260904000510 85 103 2.0 10.0 0.00 0.22 0.00 65 1012.0
20260904000507 85 118 2.0 10.0 0.00 0.22 0.00 65 1012.8
20260904000025 85 170 2.0 10.0 0.00 0.22 0.00 65 1012.0
20260904000023 85 178 2.0 10.0 0.00 0.22 0.00 65 1012.8
20260903235514 85 91 2.0 10.0 0.00 0.22 0.00 66 1012.0
20260903235511 85 202 1.0 10.0 0.00 0.22 0.00 66 1012.9
20260903235015 85 86 2.0 9.0 0.00 0.22 0.00 66 1012.0
20260903235004 85 272 2.0 10.0 0.00 0.22 0.00 66 1012.9
20260903234525 85 128 2.0 9.0 0.00 0.22 0.00 67 1012.7
20260903234016 85 156 2.0 8.0 0.00 0.22 0.00 67 1012.0
20260903233517 85 73 2.0 10.0 0.00 0.22 0.00 67 1012.1
20260903233507 85 136 1.0 7.0 0.00 0.22 0.00 67 1012.8
20260903233035 85 12 3.0 11.0 0.00 0.22 0.00 67 1012.0
20260903233032 85 194 2.0 11.0 0.00 0.22 0.00 67 1012.8
20260903232514 85 159 3.0 11.0 0.00 0.22 0.00 68 1012.8
20260903232503 85 93 2.0 11.0 0.00 0.22 0.00 68 1012.1
20260903232004 85 273 2.0 8.0 0.00 0.22 0.00 67 1012.8
20260903231517 85 105 3.0 8.0 0.00 0.22 0.00 67 1012.9
20260903231514 85 74 2.0 13.0 0.00 0.22 0.00 67 1012.0
20260903231010 85 194 1.0 8.0 0.00 0.22 0.00 67 1012.9
20260903231006 85 90 3.0 13.0 0.00 0.22 0.00 67 1012.0
20260903230512 85 188 2.0 8.0 0.00 0.22 0.00 66 1012.8
20260903230502 85 88 4.0 11.0 0.00 0.22 0.00 66 1012.0
20260903230029 85 163 2.0 8.0 0.00 0.22 0.00 67 1012.7
20260903230015 85 42 3.0 11.0 0.00 0.22 0.00 67 1011.9
20260903225509 85 151 3.0 13.0 0.00 0.22 0.00 66 1012.7
20260903225505 85 71 3.0 11.0 0.00 0.22 0.00 66 1011.9
20260903225013 86 156 2.0 12.0 0.00 0.22 0.00 67 1012.6
20260903225003 86 86 4.0 11.0 0.00 0.22 0.00 67 1011.9
20260903224531 86 222 3.0 8.0 0.00 0.22 0.00 65 1012.6
20260903224515 86 173 2.0 8.0 0.00 0.22 0.00 65 1011.9
20260903224012 86 175 1.0 9.0 0.00 0.22 0.00 66 1012.6
20260903224003 86 52 3.0 9.0 0.00 0.22 0.00 66 1011.9
20260903223509 86 227 3.0 9.0 0.00 0.22 0.00 65 1012.5
20260903223503 86 147 3.0 10.0 0.00 0.22 0.00 65 1011.8
20260903223030 86 153 2.0 8.0 0.00 0.22 0.00 65 1012.5
20260903223004 86 81 4.0 11.0 0.00 0.22 0.00 65 1011.9
20260903222516 86 244 2.0 11.0 0.00 0.22 0.00 65 1012.6
20260903222506 86 169 3.0 14.0 0.00 0.22 0.00 65 1011.8
20260903222008 86 156 3.0 11.0 0.00 0.22 0.00 65 1012.6
20260903221515 87 83 5.0 13.0 0.00 0.22 0.00 67 1011.8
20260903221511 87 215 3.0 12.0 0.00 0.22 0.00 67 1012.5
20260903221006 87 117 4.0 12.0 0.00 0.22 0.00 64 1012.6
20260903221003 87 120 5.0 13.0 0.00 0.22 0.00 64 1011.9
20260903220508 88 67 4.0 12.0 0.00 0.22 0.00 64 1012.5
20260903220503 88 5 4.0 12.0 0.00 0.22 0.00 64 1011.8
20260903220023 90 175 4.0 12.0 0.00 0.22 0.00 63 1011.7
20260903220018 90 140 2.0 11.0 0.00 0.22 0.00 63 1012.4
20260903215511 90 238 3.0 10.0 0.00 0.22 0.00 63 1012.4
20260903215504 90 36 4.0 16.0 0.00 0.22 0.00 63 1011.6
20260903215013 90 93 4.0 10.0 0.00 0.22 0.00 64 1012.4
20260903215004 90 93 4.0 16.0 0.00 0.22 0.00 64 1011.7
20260903214523 90 173 3.0 10.0 0.00 0.22 0.00 63 1012.4
20260903214516 90 99 6.0 16.0 0.00 0.22 0.00 63 1011.7
20260903214012 89 108 2.0 19.0 0.00 0.22 0.00 66 1012.4
20260903214007 89 49 5.0 18.0 0.00 0.22 0.00 66 1011.9
20260903213518 90 203 4.0 19.0 0.00 0.22 0.00 67 1012.7
20260903213503 90 124 5.0 18.0 0.00 0.22 0.00 67 1011.9
20260903213016 91 98 2.0 12.0 0.00 0.22 0.00 66 1012.7
20260903213005 91 154 4.0 11.0 0.00 0.22 0.00 66 1011.8
20260903212512 91 170 3.0 12.0 0.00 0.22 0.00 66 1012.6
20260903212504 91 26 2.0 11.0 0.00 0.22 0.00 66 1011.9
20260903212015 91 104 2.0 10.0 0.00 0.22 0.00 65 1012.5
20260903212005 91 63 3.0 11.0 0.00 0.22 0.00 65 1011.9
20260903211532 91 128 2.0 8.0 0.00 0.22 0.00 65 1012.8
20260903211510 91 63 4.0 11.0 0.00 0.22 0.00 65 1011.9
20260903211010 91 268 1.0 8.0 0.00 0.22 0.00 65 1012.8
20260903211007 91 84 2.0 11.0 0.00 0.22 0.00 65 1011.9
20260903210507 91 123 2.0 9.0 0.00 0.22 0.00 65 1012.9
20260903210014 91 61 3.0 9.0 0.00 0.22 0.00 66 1012.7
20260903210011 91 79 2.0 10.0 0.00 0.22 0.00 66 1012.0
20260903205506 91 84 3.0 10.0 0.00 0.22 0.00 66 1011.9
20260903205010 91 315 3.0 8.0 0.00 0.22 0.00 62 1012.8
20260903205005 91 341 4.0 9.0 0.00 0.22 0.00 62 1012.0
20260903204524 92 249 2.0 10.0 0.00 0.22 0.00 59 1012.8
20260903204513 92 22 3.0 10.0 0.00 0.22 0.00 59 1012.0
20260903204012 93 96 1.0 10.0 0.00 0.22 0.00 55 1012.9
20260903204007 93 94 2.0 10.0 0.00 0.22 0.00 55 1012.0
20260903203510 93 119 1.0 10.0 0.00 0.22 0.00 55 1012.0
20260903203507 93 44 3.0 10.0 0.00 0.22 0.00 55 1012.9
20260903203028 93 9 3.0 10.0 0.00 0.22 0.00 55 1013.0
20260903203014 93 88 2.0 9.0 0.00 0.22 0.00 55 1012.1
20260903202516 93 27 2.0 10.0 0.00 0.22 0.00 56 1013.0
20260903202503 93 176 3.0 8.0 0.00 0.22 0.00 56 1012.3
20260903202010 93 60 2.0 8.0 0.00 0.22 0.00 57 1012.3
20260903202006 93 120 1.0 7.0 0.00 0.22 0.00 57 1013.0
20260903201526 92 100 1.0 8.0 0.00 0.22 0.00 59 1013.2
20260903201514 92 171 3.0 11.0 0.00 0.22 0.00 59 1012.4
20260903201019 92 204 1.0 8.0 0.00 0.22 0.00 58 1013.4
20260903201002 92 67 6.0 11.0 0.00 0.22 0.00 58 1012.4
20260903200518 92 78 2.0 6.0 0.00 0.22 0.00 60 1013.3
20260903200506 92 10 1.0 6.0 0.00 0.22 0.00 60 1012.4
20260903200018 92 61 2.0 8.0 0.00 0.22 0.00 58 1013.4
20260903200016 92 40 1.0 8.0 0.00 0.22 0.00 58 1012.5
20260903195510 92 345 3.0 7.0 0.00 0.22 0.00 57 1013.4
20260903195507 92 317 1.0 4.0 0.00 0.22 0.00 57 1012.5
20260903195010 93 149 1.0 6.0 0.00 0.22 0.00 57 1013.3
20260903195003 93 94 1.0 3.0 0.00 0.22 0.00 57 1012.5
20260903194518 93 150 1.0 6.0 0.00 0.22 0.00 57 1013.3
20260903194515 93 140 1.0 6.0 0.00 0.22 0.00 57 1012.5
20260903194015 92 151 2.0 8.0 0.00 0.22 0.00 57 1013.3
20260903194006 92 281 1.0 8.0 0.00 0.22 0.00 57 1012.5
20260903193512 93 99 2.0 8.0 0.00 0.22 0.00 58 1013.5
20260903193503 93 109 2.0 8.0 0.00 0.22 0.00 58 1012.5
20260903193027 93 9 1.0 4.0 0.00 0.22 0.00 57 1013.4
20260903193012 93 57 1.0 6.0 0.00 0.22 0.00 57 1012.5
20260903192510 92 99 2.0 5.0 0.00 0.22 0.00 58 1013.5
20260903192507 92 111 2.0 6.0 0.00 0.22 0.00 58 1012.7
20260903192014 92 103 0.0 5.0 0.00 0.22 0.00 59 1013.6
20260903192009 92 126 2.0 5.0 0.00 0.22 0.00 59 1012.7
20260903191539 92 207 1.0 5.0 0.00 0.22 0.00 57 1013.5
20260903191509 92 334 1.0 5.0 0.00 0.22 0.00 57 1012.8
20260903191010 92 192 0.0 7.0 0.00 0.22 0.00 58 1013.7
20260903191002 92 98 2.0 7.0 0.00 0.22 0.00 58 1012.9
20260903190514 92 200 0.0 7.0 0.00 0.22 0.00 58 1013.7
20260903190504 92 78 2.0 5.0 0.00 0.22 0.00 58 1012.9
20260903190033 92 273 1.0 4.0 0.00 0.22 0.00 59 1013.8
20260903190012 92 121 1.0 3.0 0.00 0.22 0.00 59 1013.0
20260903185519 92 121 1.0 4.0 0.00 0.22 0.00 61 1013.9
20260903185509 92 105 1.0 8.0 0.00 0.22 0.00 61 1013.1
20260903185010 92 192 0.0 3.0 0.00 0.22 0.00 57 1013.9
20260903185007 92 109 2.0 9.0 0.00 0.22 0.00 57 1013.2
20260903184523 93 250 4.0 9.0 0.00 0.22 0.00 56 1013.2
20260903184515 93 250 1.0 3.0 0.00 0.22 0.00 56 1014.1
20260903184009 93 176 0.0 3.0 0.00 0.22 0.00 56 1014.1
20260903183509 92 106 2.0 8.0 0.00 0.22 0.00 54 1013.4
20260903183028 92 196 1.0 7.0 0.00 0.22 0.00 59 1014.3
20260903183023 92 126 3.0 8.0 0.00 0.22 0.00 59 1013.4
20260903182512 91 144 0.0 7.0 0.00 0.22 0.00 59 1014.3
20260903182510 91 94 3.0 7.0 0.00 0.22 0.00 59 1013.6
20260903182012 92 270 0.0 9.0 0.00 0.22 0.00 56 1014.4
20260903182008 92 71 1.0 9.0 0.00 0.22 0.00 56 1013.7
20260903181522 93 142 1.0 9.0 0.00 0.22 0.00 56 1014.4
20260903181016 94 61 1.0 6.0 0.00 0.22 0.00 55 1014.5
20260903181011 94 152 1.0 9.0 0.00 0.22 0.00 55 1013.8
20260903180515 93 10 1.0 7.0 0.00 0.22 0.00 58 1014.7
20260903180504 93 146 3.0 11.0 0.00 0.22 0.00 58 1013.8
20260903180020 94 182 1.0 7.0 0.00 0.22 0.00 55 1014.8
20260903180017 94 23 2.0 11.0 0.00 0.22 0.00 55 1014.0
20260903175506 96 144 1.0 4.0 0.00 0.22 0.00 53 1014.9
20260903175503 96 129 2.0 8.0 0.00 0.22 0.00 53 1014.1
20260903175007 95 151 3.0 9.0 0.00 0.22 0.00 54 1014.1
20260903175004 95 200 1.0 4.0 0.00 0.22 0.00 54 1014.9
20260903174515 94 167 4.0 9.0 0.00 0.22 0.00 55 1014.2
20260903174009 93 74 2.0 7.0 0.00 0.22 0.00 55 1014.2
20260903173511 91 360 1.0 6.0 0.00 0.22 0.00 59 1015.0
20260903173509 91 85 2.0 7.0 0.00 0.22 0.00 59 1014.5
20260903173023 92 323 1.0 7.0 0.00 0.22 0.00 56 1014.5
20260903173012 92 142 1.0 6.0 0.00 0.22 0.00 56 1015.1
20260903172510 93 155 2.0 9.0 0.00 0.22 0.00 57 1014.5
20260903172507 93 306 1.0 5.0 0.00 0.22 0.00 57 1015.2
20260903172012 94 150 4.0 12.0 0.00 0.22 0.00 58 1014.6
20260903172010 94 191 2.0 4.0 0.00 0.22 0.00 58 1015.3
20260903171535 93 199 1.0 4.0 0.00 0.22 0.00 62 1015.2
20260903171523 93 166 6.0 12.0 0.00 0.22 0.00 62 1014.5
20260903171009 92 94 3.0 10.0 0.00 0.22 0.00 60 1014.5
20260903171006 92 153 1.0 5.0 0.00 0.22 0.00 60 1015.1
20260903170511 92 165 3.0 14.0 0.00 0.22 0.00 64 1014.5
20260903170035 92 139 2.0 7.0 0.00 0.22 0.00 64 1015.1
20260903170032 92 178 5.0 14.0 0.00 0.22 0.00 64 1014.5
20260903165504 90 248 1.0 7.0 0.00 0.22 0.00 64 1015.1
20260903165009 90 200 1.0 5.0 0.00 0.22 0.00 67 1015.1
20260903165005 90 208 4.0 13.0 0.00 0.22 0.00 67 1014.6
20260903164512 89 234 1.0 6.0 0.00 0.22 0.00 68 1015.2
20260903164008 89 273 2.0 6.0 0.00 0.22 0.00 65 1015.3
20260903163511 89 149 2.0 9.0 0.00 0.22 0.00 64 1015.3
20260903163507 89 182 5.0 13.0 0.00 0.22 0.00 64 1014.5
20260903163020 89 205 7.0 15.0 0.00 0.22 0.00 66 1014.5
20260903163016 89 173 4.0 8.0 0.00 0.22 0.00 66 1015.2
20260903162510 89 158 8.0 15.0 0.00 0.22 0.00 68 1014.5
20260903162006 89 198 7.0 13.0 0.00 0.22 0.00 69 1014.5
20260903162003 89 294 1.0 6.0 0.00 0.22 0.00 69 1015.2
20260903161525 89 205 8.0 15.0 0.00 0.22 0.00 1014.5
20260903161522 89 193 2.0 6.0 0.00 0.22 0.00 1015.1
20260903161012 90 193 9.0 15.0 0.00 0.22 0.00 1014.5
20260903161010 90 183 4.0 7.0 0.00 0.22 0.00 1015.1
20260903160516 90 157 1.0 7.0 0.00 0.22 0.00 72 1015.1
20260903160511 90 218 7.0 14.0 0.00 0.22 0.00 72 1014.5
20260903160020 88 221 9.0 13.0 0.00 0.22 0.00 72 1014.4
20260903160017 88 162 3.0 8.0 0.00 0.22 0.00 72 1015.1
20260903155512 87 221 2.0 9.0 0.00 0.22 0.00 72 1015.1
20260903155014 87 199 2.0 9.0 0.00 0.22 0.00 72 1015.1
20260903155012 87 167 8.0 14.0 0.00 0.22 0.00 72 1014.4
20260903154515 86 213 9.0 14.0 0.00 0.22 0.00 72 1014.4
20260903154512 86 252 2.0 6.0 0.00 0.22 0.00 72 1015.2
20260903154008 86 193 4.0 13.0 0.00 0.22 0.00 74 1014.5
20260903154005 86 223 1.0 5.0 0.00 0.22 0.00 74 1015.2
20260903153507 86 161 0.0 7.0 0.00 0.22 0.00 73 1015.1
20260903153018 86 196 9.0 15.0 0.00 0.22 0.00 77 1014.3
20260903153013 86 189 2.0 11.0 0.00 0.22 0.00 77 1015.0
20260903152508 85 188 8.0 17.0 0.00 0.22 0.00 76 1014.3
20260903152010 85 198 9.0 17.0 0.00 0.22 0.00 75 1014.3
20260903152008 85 225 5.0 10.0 0.00 0.22 0.00 75 1014.9
20260903151530 84 207 8.0 17.0 0.00 0.22 0.00 76 1014.3
20260903151523 84 223 2.0 10.0 0.00 0.22 0.00 76 1014.9
20260903151012 84 191 9.0 15.0 0.00 0.22 0.00 76 1014.3
20260903151006 84 213 4.0 9.0 0.00 0.22 0.00 76 1014.9
20260903150512 84 194 9.0 16.0 0.00 0.22 0.00 77 1014.3
20260903150508 84 156 3.0 9.0 0.00 0.22 0.00 77 1015.0
20260903150039 84 193 8.0 16.0 0.00 0.22 0.00 78 1014.3
20260903150026 84 205 3.0 9.0 0.00 0.22 0.00 78 1014.9
20260903145515 84 209 2.0 13.0 0.00 0.22 0.00 78 1014.9
20260903145511 84 196 10.0 18.0 0.00 0.22 0.00 78 1014.3
20260903145011 83 155 7.0 19.0 0.00 0.22 0.00 81 1014.4
20260903145007 83 192 1.0 13.0 0.00 0.22 0.00 81 1015.0
20260903144524 83 239 2.0 13.0 0.00 0.22 0.00 81 1015.1
20260903144013 82 191 3.0 8.0 0.00 0.22 0.00 82 1015.0
20260903144011 82 183 7.0 16.0 0.00 0.22 0.00 82 1014.5
20260903143519 82 209 8.0 18.0 0.00 0.22 0.00 82 1014.5
20260903143506 82 220 3.0 8.0 0.00 0.22 0.00 82 1015.1
20260903143036 82 184 9.0 18.0 0.00 0.22 0.00 82 1014.5
20260903143018 82 147 2.0 8.0 0.00 0.22 0.00 82 1015.1
20260903142511 82 196 1.0 5.0 0.00 0.22 0.00 83 1015.1
20260903142009 82 140 1.0 9.0 0.00 0.22 0.00 83 1015.1
20260903141524 82 172 8.0 13.0 0.00 0.22 0.00 84 1014.5
20260903141519 82 148 2.0 9.0 0.00 0.22 0.00 84 1015.2
20260903141016 82 184 5.0 13.0 0.00 0.22 0.00 84 1014.5
20260903141012 82 238 1.0 7.0 0.00 0.22 0.00 84 1015.1
20260903140512 81 217 2.0 6.0 0.00 0.22 0.00 84 1015.2
20260903140510 81 210 7.0 14.0 0.00 0.22 0.00 84 1014.4
20260903140030 81 181 6.0 19.0 0.00 0.22 0.00 85 1014.3
20260903140016 81 192 2.0 6.0 0.00 0.22 0.00 85 1015.2
20260903135511 81 164 7.0 19.0 0.00 0.22 0.00 86 1014.2
20260903135509 81 175 2.0 7.0 0.00 0.22 0.00 86 1015.2
20260903135016 81 202 6.0 12.0 0.00 0.22 0.00 86 1014.3
20260903134543 80 203 5.0 13.0 0.00 0.22 0.00 87 1014.4
20260903134529 80 146 1.0 6.0 0.00 0.22 0.00 87 1014.9
20260903134009 80 217 1.0 6.0 0.00 0.22 0.00 87 1014.9
20260903134006 80 209 5.0 13.0 0.00 0.22 0.00 87 1014.3
20260903133516 80 199 5.0 10.0 0.00 0.22 0.00 88 1014.3
20260903133512 80 246 1.0 6.0 0.00 0.22 0.00 88 1014.8
20260903133034 80 189 1.0 4.0 0.00 0.22 0.00 88 1014.9
20260903133031 80 148 6.0 9.0 0.00 0.22 0.00 88 1014.3
20260903132514 79 167 4.0 8.0 0.00 0.22 0.00 88 1014.4
20260903132508 79 205 0.0 3.0 0.00 0.22 0.00 88 1014.9
20260903132012 79 214 4.0 10.0 0.00 0.22 0.00 88 1014.4
20260903132007 79 223 1.0 5.0 0.00 0.22 0.00 88 1014.9
20260903131518 79 190 5.0 12.0 0.00 0.22 0.00 88 1014.4
20260903131010 79 172 0.0 4.0 0.00 0.22 0.00 88 1014.9
20260903131008 79 165 4.0 12.0 0.00 0.22 0.00 88 1014.3
20260903130508 79 170 4.0 11.0 0.00 0.22 0.00 88 1014.2
20260903130025 79 234 4.0 10.0 0.00 0.22 0.00 89 1014.3
20260903130022 79 222 1.0 6.0 0.00 0.22 0.00 89 1014.9
20260903125513 79 213 5.0 8.0 0.00 0.22 0.00 89 1014.3
20260903125012 79 184 3.0 7.0 0.00 0.22 0.00 89 1014.3
20260903125008 79 251 0.0 3.0 0.00 0.22 0.00 89 1014.9
20260903124527 79 165 4.0 7.0 0.00 0.22 0.00 89 1014.2
20260903124523 79 190 1.0 3.0 0.00 0.22 0.00 89 1014.9
20260903124014 79 220 0.0 2.0 0.00 0.22 0.00 89 1015.0
20260903123520 79 207 0.0 3.0 0.00 0.22 0.00 89 1015.0
20260903123515 79 177 5.0 9.0 0.00 0.22 0.00 89 1014.1
20260903123025 79 173 4.0 11.0 0.00 0.22 0.00 89 1014.1
20260903123016 79 179 0.0 3.0 0.00 0.22 0.00 89 1014.9
20260903122514 79 227 0.0 2.0 0.00 0.22 0.00 89 1014.9
20260903122015 79 169 1.0 4.0 0.00 0.22 0.00 89 1014.7
20260903121528 79 198 4.0 8.0 0.00 0.22 0.00 89 1014.0
20260903121524 79 213 0.0 5.0 0.00 0.22 0.00 89 1014.6
20260903121012 79 169 5.0 8.0 0.00 0.22 0.00 90 1014.0
20260903121006 79 213 0.0 5.0 0.00 0.22 0.00 90 1014.7
20260903120515 78 187 3.0 8.0 0.00 0.22 0.00 90 1014.0
20260903120512 78 201 1.0 5.0 0.00 0.22 0.00 90 1014.7
20260903120022 78 186 0.0 3.0 0.00 0.22 0.00 90 1014.6
20260903115511 78 199 0.0 3.0 0.00 0.22 0.00 90 1014.6
20260903115509 78 205 4.0 9.0 0.00 0.22 0.00 90 1013.9
20260903115012 78 206 2.0 8.0 0.00 0.22 0.00 90 1013.9
20260903114532 78 134 2.0 8.0 0.00 0.22 0.00 90 1013.8
20260903114526 78 252 0.0 5.0 0.00 0.22 0.00 90 1014.6
20260903114017 78 158 3.0 5.0 0.00 0.22 0.00 90 1013.8
20260903114008 78 225 0.0 2.0 0.00 0.22 0.00 90 1014.5
20260903113511 78 240 0.0 2.0 0.00 0.22 0.00 90 1014.5
20260903113034 78 196 2.0 5.0 0.00 0.22 0.00 90 1013.8
20260903113027 78 167 0.0 2.0 0.00 0.22 0.00 90 1014.5
20260903112517 78 240 0.0 3.0 0.00 0.22 0.00 90 1014.5
20260903112509 78 183 2.0 5.0 0.00 0.22 0.00 90 1013.8
20260903112009 79 187 0.0 3.0 0.00 0.22 0.00 90 1014.4
20260903112003 78 157 3.0 7.0 0.00 0.22 0.00 90 1013.8
20260903111527 78 152 0.0 2.0 0.00 0.22 0.00 90 1014.5
20260903111504 78 168 3.0 7.0 0.00 0.22 0.00 90 1013.8
20260903111014 78 187 0.0 5.0 0.00 0.22 0.00 90 1014.5
20260903111004 78 174 3.0 7.0 0.00 0.22 0.00 90 1013.8
20260903110507 78 181 0.0 5.0 0.00 0.22 0.00 90 1014.4
20260903110502 78 200 4.0 7.0 0.00 0.22 0.00 90 1013.7
20260903110022 78 167 0.0 2.0 0.00 0.22 0.00 90 1014.4
20260903110003 78 171 3.0 7.0 0.00 0.22 0.00 90 1013.7
20260903105513 78 187 0.0 3.0 0.00 0.22 0.00 90 1014.4
20260903105503 78 180 2.0 7.0 0.00 0.22 0.00 90 1013.6
20260903105014 78 133 0.0 3.0 0.00 0.22 0.00 90 1014.3
20260903105003 78 185 2.0 8.0 0.00 0.22 0.00 90 1013.6
20260903104519 78 198 0.0 2.0 0.00 0.22 0.00 90 1014.3
20260903104503 78 162 3.0 10.0 0.00 0.22 0.00 90 1013.5
20260903104014 78 153 0.0 2.0 0.00 0.22 0.00 91 1014.2
20260903104005 78 156 4.0 10.0 0.00 0.22 0.00 91 1013.5
20260903103512 78 219 0.0 2.0 0.00 0.22 0.00 91 1014.3
20260903103502 78 157 4.0 7.0 0.00 0.22 0.00 91 1013.6
20260903103019 78 150 0.0 2.0 0.00 0.22 0.00 91 1014.4
20260903103011 78 156 1.0 9.0 0.00 0.22 0.00 91 1013.7
20260903102513 78 174 1.0 2.0 0.00 0.22 0.00 91 1014.3
20260903102503 78 168 3.0 9.0 0.00 0.22 0.00 91 1013.6
20260903102019 78 176 0.0 2.0 0.00 0.22 0.00 91 1014.4
20260903102002 78 157 3.0 6.0 0.00 0.22 0.00 91 1013.7
20260903101530 78 192 0.0 4.0 0.00 0.22 0.00 91 1014.3
20260903101509 78 173 1.0 7.0 0.00 0.22 0.00 91 1013.6
20260903101008 78 260 0.0 4.0 0.00 0.22 0.00 91 1014.2
20260903101002 78 185 3.0 9.0 0.00 0.22 0.00 91 1013.5
20260903100512 78 159 0.0 2.0 0.00 0.22 0.00 91 1014.2
20260903100503 78 188 4.0 9.0 0.00 0.22 0.00 91 1013.5
20260903100033 78 164 0.0 2.0 0.00 0.22 0.00 91 1014.2
20260903100010 78 146 4.0 8.0 0.00 0.22 0.00 91 1013.5
20260903095510 78 144 0.0 2.0 0.00 0.22 0.00 91 1014.2
20260903095010 78 198 0.0 2.0 0.00 0.22 0.00 91 1014.2
20260903095002 78 157 3.0 6.0 0.00 0.22 0.00 91 1013.5
20260903094526 78 138 0.0 2.0 0.00 0.22 0.00 92 1014.3
20260903094504 78 199 1.0 5.0 0.00 0.22 0.00 92 1013.6
20260903094013 78 177 0.0 2.0 0.00 0.22 0.00 92 1014.4
20260903094004 78 144 2.0 6.0 0.00 0.22 0.00 92 1013.7
20260903093508 78 179 0.0 2.0 0.00 0.22 0.00 92 1014.4
20260903093503 78 178 2.0 6.0 0.00 0.22 0.00 91 1013.7
20260903093032 78 183 0.0 2.0 0.00 0.22 0.00 91 1014.5
20260903093015 78 184 3.0 5.0 0.00 0.22 0.00 91 1013.8
20260903092519 78 163 0.0 2.0 0.00 0.22 0.00 91 1014.5
20260903092503 78 137 2.0 6.0 0.00 0.22 0.00 91 1013.8
20260903092020 78 155 0.0 2.0 0.00 0.22 0.00 91 1014.6
20260903092003 78 196 2.0 6.0 0.00 0.22 0.00 91 1013.8
20260903091526 78 163 0.0 2.0 0.00 0.22 0.00 91 1014.6
20260903091503 78 186 2.0 6.0 0.00 0.22 0.00 91 1013.8
20260903091015 78 165 0.0 2.0 0.00 0.22 0.00 91 1014.6
20260903091003 78 138 1.0 6.0 0.00 0.22 0.00 91 1013.8
20260903090517 77 150 0.0 2.0 0.00 0.22 0.00 91 1014.5
20260903090506 77 140 2.0 6.0 0.00 0.22 0.00 91 1013.8
20260903090023 77 196 0.0 2.0 0.00 0.22 0.00 92 1014.4
20260903090013 77 157 2.0 5.0 0.00 0.22 0.00 92 1013.6
20260903085513 77 176 0.0 2.0 0.00 0.22 0.00 92 1014.4
20260903085503 77 148 2.0 5.0 0.00 0.22 0.00 92 1013.6
20260903085016 77 188 0.0 2.0 0.00 0.22 0.00 92 1014.4
20260903085003 77 148 2.0 5.0 0.00 0.22 0.00 92 1013.6
20260903084519 77 181 0.0 2.0 0.00 0.22 0.00 92 1014.4
20260903084012 77 180 0.0 2.0 0.00 0.22 0.00 91 1014.4
20260903084003 77 182 2.0 6.0 0.00 0.22 0.00 91 1013.6
20260903083513 77 166 0.0 2.0 0.00 0.22 0.00 91 1014.4
20260903083504 77 171 2.0 6.0 0.00 0.22 0.00 91 1013.6
20260903083029 76 175 0.0 2.0 0.00 0.22 0.00 91 1014.4
20260903083004 76 178 2.0 5.0 0.00 0.22 0.00 91 1013.7
20260903082512 76 213 0.0 2.0 0.00 0.22 0.00 91 1014.4
20260903082503 76 177 2.0 5.0 0.00 0.22 0.00 91 1013.8
20260903082004 76 243 0.0 2.0 0.00 0.22 0.00 91 1014.5
20260903081518 76 147 2.0 4.0 0.00 0.22 0.00 91 1013.8
20260903081508 76 159 0.0 2.0 0.00 0.22 0.00 91 1014.5
20260903081005 76 182 1.0 4.0 0.00 0.22 0.00 91 1013.7
20260903081003 76 152 0.0 2.0 0.00 0.22 0.00 91 1014.4
20260903080508 76 152 0.0 2.0 0.00 0.22 0.00 91 1014.5
20260903080502 76 153 1.0 4.0 0.00 0.22 0.00 91 1013.8
20260903080008 76 161 0.0 2.0 0.00 0.22 0.00 91 1014.5
20260903075511 76 198 1.0 4.0 0.00 0.22 0.00 91 1013.8
20260903075505 76 159 0.0 2.0 0.00 0.22 0.00 91 1014.5
20260903075011 76 181 0.0 2.0 0.00 0.22 0.00 91 1014.5
20260903075006 76 147 1.0 4.0 0.00 0.22 0.00 91 1013.7
20260903074507 76 195 0.0 2.0 0.00 0.22 0.00 91 1014.5
20260903074503 76 171 1.0 4.0 0.00 0.22 0.00 91 1013.8
20260903074006 76 145 2.0 4.0 0.00 0.22 0.00 91 1013.7
20260903073510 76 161 0.0 3.0 0.00 0.22 0.00 91 1013.8
20260903073506 76 153 0.0 2.0 0.00 0.22 0.00 91 1014.5
20260903073027 76 185 0.0 2.0 0.00 0.22 0.00 91 1014.6
20260903073003 76 169 1.0 3.0 0.00 0.22 0.00 91 1013.8
20260903072503 76 146 0.0 2.0 0.00 0.22 0.00 91 1014.6
20260903072004 76 146 0.0 2.0 0.00 0.22 0.00 91 1014.6
20260903071508 76 203 1.0 3.0 0.00 0.22 0.00 91 1013.9
20260903071005 76 171 1.0 3.0 0.00 0.22 0.00 91 1014.0
20260903070508 76 169 0.0 2.0 0.00 0.22 0.00 91 1014.7
20260903070503 76 157 0.0 2.0 0.00 0.22 0.00 91 1014.1
20260903070016 76 173 0.0 2.0 0.00 0.22 0.00 90 1014.9
20260903070008 76 157 0.0 2.0 0.00 0.22 0.00 90 1014.1
20260903065507 76 173 0.0 2.0 0.00 0.22 0.00 90 1014.9
20260903065504 76 158 0.0 2.0 0.00 0.22 0.00 90 1014.1
20260903065005 76 148 1.0 3.0 0.00 0.22 0.00 89 1014.1
20260903064515 76 173 0.0 0.0 0.00 0.22 0.00 89 1014.9
20260903064008 76 173 0.0 0.0 0.00 0.22 0.00 89 1014.9
20260903064006 76 169 1.0 5.0 0.00 0.22 0.00 89 1014.2
20260903063503 76 179 2.0 4.0 0.00 0.22 0.00 88 1014.1
20260903063016 76 173 0.0 2.0 0.00 0.22 0.00 88 1014.9
20260903062509 76 184 2.0 8.0 0.00 0.22 0.00 88 1014.1
20260903062013 76 178 0.0 2.0 0.00 0.22 0.00 88 1014.9
20260903062002 76 180 2.0 7.0 0.00 0.22 0.00 88 1014.1
20260903061510 76 150 0.0 2.0 0.00 0.22 0.00 87 1014.7
20260903061504 76 161 2.0 7.0 0.00 0.22 0.00 87 1014.0
20260903061005 76 211 2.0 9.0 0.00 0.22 0.00 87 1014.0
20260903060504 76 252 0.0 5.0 0.00 0.22 0.00 87 1014.6
20260903060502 76 159 2.0 11.0 0.00 0.22 0.00 87 1013.8
20260903060008 76 135 1.0 4.0 0.00 0.22 0.00 86 1014.7
20260903060006 76 191 2.0 11.0 0.00 0.22 0.00 86 1014.0
20260903055506 76 189 1.0 4.0 0.00 0.22 0.00 86 1014.7
20260903055503 76 135 2.0 10.0 0.00 0.22 0.00 86 1014.1
20260903055005 76 168 1.0 4.0 0.00 0.22 0.00 87 1014.7
20260903054518 76 217 0.0 5.0 0.00 0.22 0.00 86 1014.6
20260903054513 76 160 4.0 8.0 0.00 0.22 0.00 86 1014.0
20260903054005 76 154 1.0 5.0 0.00 0.22 0.00 87 1014.8
20260903054003 76 167 3.0 8.0 0.00 0.22 0.00 87 1014.1
20260903053508 76 127 3.0 7.0 0.00 0.22 0.00 87 1014.1
20260903053020 76 164 0.0 3.0 0.00 0.22 0.00 86 1014.7
20260903053017 76 130 3.0 7.0 0.00 0.22 0.00 86 1014.1
20260903052504 76 173 0.0 2.0 0.00 0.22 0.00 87 1014.9
20260903052006 76 207 0.0 3.0 0.00 0.22 0.00 86 1014.9
20260903052004 76 159 3.0 7.0 0.00 0.22 0.00 86 1014.1
20260903051524 76 173 1.0 3.0 0.00 0.22 0.00 86 1014.7
20260903051519 76 189 3.0 8.0 0.00 0.22 0.00 86 1013.9
20260903051014 76 150 1.0 3.0 0.00 0.22 0.00 86 1014.7
20260903050505 76 176 1.0 4.0 0.00 0.22 0.00 86 1014.7
20260903050503 76 168 3.0 11.0 0.00 0.22 0.00 86 1014.0
20260903050007 76 145 1.0 4.0 0.00 0.22 0.00 86 1014.6
20260903050005 76 168 2.0 8.0 0.00 0.22 0.00 86 1014.0
20260903045505 76 132 2.0 8.0 0.00 0.22 0.22 87 1013.9
20260903045503 76 180 1.0 4.0 0.00 0.22 0.22 87 1014.6
20260903045005 76 200 1.0 5.0 0.00 0.22 0.22 88 1014.6
20260903045003 76 155 2.0 6.0 0.00 0.22 0.22 88 1014.0
20260903044510 76 175 1.0 5.0 0.00 0.22 0.22 88 1014.7
20260903044006 76 119 0.0 5.0 0.00 0.22 0.22 88 1014.5
20260903043510 76 181 0.0 5.0 0.00 0.22 0.22 87 1014.4
20260903043011 76 103 1.0 11.0 0.00 0.22 0.22 87 1013.8
20260903042509 76 142 1.0 6.0 0.00 0.22 0.22 86 1014.6
20260903042507 76 76 4.0 11.0 0.00 0.22 0.22 86 1013.7
20260903042013 77 132 1.0 6.0 0.00 0.22 0.22 86 1014.6
20260903042009 77 101 3.0 10.0 0.00 0.22 0.22 86 1013.8
20260903041509 76 152 1.0 8.0 0.00 0.22 0.22 88 1014.7
20260903041504 76 117 3.0 8.0 0.00 0.22 0.22 88 1013.8
20260903041007 76 100 2.0 8.0 0.00 0.22 0.22 89 1014.0
20260903041005 76 135 2.0 8.0 0.00 0.22 0.22 89 1014.6
20260903040510 76 131 0.0 4.0 0.00 0.22 0.22 90 1014.6
20260903040031 76 210 1.0 4.0 0.00 0.22 0.22 90 1014.3
20260903035505 76 253 0.0 4.0 0.00 0.22 0.22 90 1014.3
20260903035503 76 172 1.0 6.0 0.00 0.22 0.22 90 1013.7
20260903035004 76 169 1.0 7.0 0.00 0.22 0.22 90 1013.7
20260903035002 76 163 0.0 5.0 0.00 0.22 0.22 90 1014.3
20260903034510 76 183 1.0 5.0 0.00 0.22 0.22 90 1014.3
20260903034508 76 120 2.0 8.0 0.00 0.22 0.22 90 1013.7
20260903034003 76 134 2.0 8.0 0.00 0.22 0.22 90 1013.8
20260903033505 76 251 1.0 6.0 0.00 0.22 0.22 90 1014.4
20260903033503 76 83 2.0 8.0 0.00 0.22 0.22 90 1013.7
20260903033016 76 205 1.0 6.0 0.00 0.22 0.22 90 1014.3
20260903033013 76 68 3.0 8.0 0.00 0.22 0.22 90 1013.7